Regional Weather Roundup
Issued by NWS

Home | Current Version | Previous Version | Graphics & Text | Print | Product List | Glossary On
Versions: 1 2 3 4 5 6 7 8 9 10 11 12 13 14 15 16 17 18 19 20 21 22 23 24 25 26 27 28 29 30 31 32 33 34 35 36 37 38 39 40 41 42 43 44 45 46 47 48 49 50
000
ASUS43 KIND 270109
RWRIN

WEATHER ROUNDUP FOR INDIANA
NATIONAL WEATHER SERVICE INDIANAPOLIS IN
900 PM EDT THU APR 26 2018

NOTE: "FAIR" INDICATES FEW OR NO CLOUDS BELOW 12,000 FEET WITH NO
SIGNIFICANT WEATHER AND/OR OBSTRUCTIONS TO VISIBILITY.

* - STATION DOES NOT REPORT WEATHER SUCH AS PRECIPITATION OR FOG.

+ - STATION NOT QUALITY CONTROLLED BY THE NATIONAL WEATHER SERVICE.
    USE DATA WITH CAUTION...ESPECIALLY DEWPOINT AND RELATIVE
    HUMIDITY OBSERVATIONS.

INZ001>003-010>013-019-020-270200-
NORTHWEST INDIANA

CITY           SKY/WX    TMP DP  RH WIND       PRES   REMARKS
GARY /AIRPORT/ MOCLDY    54  30  40 CALM      29.86S
KNOX *+        FAIR      54  28  37 E3        29.85F
LA PORTE +     FAIR      49  30  47 CALM      29.87S
MICHIGAN CITY+ FAIR      52  28  40 CALM      29.87R
MONTICELLO +   FAIR      56  29  35 W3        29.85S
RENSSELAER +   FAIR      55  12  18 NE3       29.86S
VALPARAISO     FAIR      54  24  31 E5        29.86S

$$

LMZ046-743>745-270200-
SOUTHERN LAKE MICHIGAN

STATION/POSITION TIME  TEMP    WIND        PRES    WAVE
                       AIR SEA DIR/SP/G            HT
                 (UTC) (F)     (DEG/KT/KT) (MB)    (FT)
BURNS HARBOR     0040   58     110/  1/  4 1011.9R
MICHIGAN CITY    0040   58     110/  3/  3   N/A

$$

INZ004-005-014>016-021>024-270200-
NORTH CENTRAL INDIANA

CITY           SKY/WX    TMP DP  RH WIND       PRES   REMARKS
ELKHART        FAIR      54  27  35 CALM      29.86S
GOSHEN         FAIR      55  34  45 NW10      29.86R
LOGANSPORT +   FAIR      55  32  41 CALM      29.86S
PERU/GRISSOM   FAIR      59  34  39 CALM      29.85R
ROCHESTER +    FAIR      57  36  44 N8        29.86R
SOUTH BEND     FAIR      52  21  29 CALM      29.88S
WARSAW +       FAIR      55  36  47 NW6       29.86R

$$

INZ006>009-017-018-025>027-270200-
NORTHEAST INDIANA

CITY           SKY/WX    TMP DP  RH WIND       PRES   REMARKS
ANGOLA *+      FAIR      55  39  54 CALM      29.84S
AUBURN +       FAIR      55  36  47 CALM      29.86R
FORT WAYNE     FAIR      59  38  45 CALM      29.86R
HUNTINGTON +   FAIR      56  33  42 CALM      29.85S
KENDALLVILLE +   N/A     57  26  30 CALM      29.85F

$$

INZ028-029-035-036-043>045-051>053-270200-
WEST CENTRAL INDIANA

CITY           SKY/WX    TMP DP  RH WIND       PRES   REMARKS
CRAWFORDSVL +  FAIR      56  34  42 CALM      29.87R
GREENCASTLE +  FAIR      57  30  35 CALM      29.87S
LAFAYETTE      FAIR      57  31  37 CALM      29.85S
TERRE HAUTE    FAIR      60  30  32 NW3       29.87S

$$

INZ030>032-037>040-046>048-054>057-064-065-270200-
CENTRAL INDIANA

CITY           SKY/WX    TMP DP  RH WIND       PRES   REMARKS
COLUMBUS       PTCLDY    55  34  44 NE3       29.86S
FRANKFORT +    FAIR      59  31  35 CALM      29.88S
GREENWOOD *+   FAIR      58  33  38 CALM      29.86S
INDIANAPOLIS   FAIR      58  33  39 NW5       29.86R
-EAGLE CREEK   FAIR      59  38  45 NW3       29.85S
KOKOMO +       FAIR      60  34  37 CALM      29.87R
MARION +       FAIR      57  36  44 CALM      29.86S
MT COMFORT *+  FAIR      55  39  54 CALM      29.87R
SHELBYVILLE    FAIR      59  31  34 N3        29.85S
ZIONSVILLE +   FAIR      55  36  47 NW3       29.87S

$$

INZ033-034-041-042-049-050-058-059-270200-
EAST CENTRAL INDIANA

CITY           SKY/WX    TMP DP  RH WIND       PRES   REMARKS
MUNCIE         FAIR      60  36  40 CALM      29.85S
RICHMOND +     FAIR      55  36  47 W3        29.86R

$$

INZ060-061-067>069-081>083-085>088-270200-
SOUTHWEST INDIANA

CITY           SKY/WX    TMP DP  RH WIND       PRES   REMARKS
EVANSVILLE     FAIR      61  34  36 NW5       29.87S
HUNTINGBURG +  FAIR      59  30  33 NW3       29.87R
WASHINGTON +   FAIR      57  33  40 NW5       29.87R

$$

INZ062-063-066-070>080-084-089>092-270200-
SOUTH CENTRAL AND SOUTHEAST INDIANA

CITY           SKY/WX    TMP DP  RH WIND       PRES   REMARKS
BATESVILLE +   CLEAR     57  28  33 MISG      29.85S
BEDFORD +      FAIR      61  23  23 N3        29.85
BLOOMINGTON    FAIR      55  39  54 N5        29.85F
FRENCH LICK *+ FAIR      59  16  18 CALM      29.87R
MADISON *+     FAIR      59  30  33 CALM      29.87R
NORTH VERNON + FAIR      59  30  33 CALM      29.86S
SEYMOUR +      FAIR      59  36  41 NE3       29.85S

$$





USA.gov is the U.S. government's official web portal to all federal, state and local government web resources and services.